EW2493 Weather Reports


Display with metric or nautical units.
time (UTC)temp
F
wind
direction
speed
MPH
gust
MPH
rain 1hr
in
rain 24hr
in
rain mn
in
humidity
%
barometer
mb
20260508050013 43 292 0.0 1.0 0.00 0.00 0.00 49 1002.1
20260508043017 45 292 0.0 1.0 0.00 0.00 0.00 45 1002.3
20260508041517 46 293 0.0 1.0 0.00 0.00 0.00 44 1002.3
20260508040012 46 294 0.0 3.0 0.00 0.00 0.00 44 1002.4
20260508034515 46 293 1.0 3.0 0.00 0.00 0.00 44 1002.4
20260508033010 46 320 0.0 1.0 0.00 0.00 0.00 43 1002.4
20260508031512 46 18 0.0 3.0 0.00 0.00 0.00 41 1002.3
20260508030010 50 237 0.0 2.0 0.00 0.00 0.00 38 1002.2
20260508024525 49 251 0.0 2.0 0.00 0.00 0.00 38 1002.2
20260508023008 49 251 0.0 1.0 0.00 0.00 0.00 38 1002.1
20260508021508 49 258 0.0 1.0 0.00 0.00 0.00 38 1001.9
20260508020007 50 272 0.0 2.0 0.00 0.00 0.00 37 1001.9
20260508014506 53 272 0.0 0.0 0.00 0.00 0.00 35 1001.9
20260508013005 56 272 0.0 1.0 0.00 0.00 0.00 33 1001.9
20260508011505 58 274 1.0 6.0 0.00 0.00 0.00 31 1002.0
20260508010008 59 284 5.0 8.0 0.00 0.00 0.00 29 1001.9
20260508004504 61 287 5.0 7.0 0.00 0.00 0.00 27 1001.9
20260508003004 62 289 7.0 13.0 0.00 0.00 0.00 23 1001.8
20260508001509 63 280 9.0 13.0 0.00 0.00 0.00 23 1001.9
20260508000002 63 289 6.0 15.0 0.00 0.00 0.00 23 1001.9
20260507234502 63 299 11.0 20.0 0.00 0.00 0.00 23 1002.0
20260507233102 63 277 7.0 14.0 0.00 0.00 0.00 22 1002.1
20260507231601 63 283 9.0 16.0 0.00 0.00 0.00 22 1002.0
20260507230112 63 247 3.0 13.0 0.00 0.00 0.00 22 1002.1
20260507224559 63 292 3.0 12.0 0.00 0.00 0.00 22 1002.2
20260507223056 63 293 10.0 16.0 0.00 0.00 0.00 22 1002.3
20260507221555 63 286 9.0 16.0 0.00 0.00 0.00 23 1002.3
20260507220057 63 296 7.0 19.0 0.00 0.00 0.00 22 1002.5
20260507214552 63 299 10.0 13.0 0.00 0.00 0.00 21 1002.6
20260507213152 63 283 4.0 13.0 0.00 0.00 0.00 23 1002.7
20260507211548 62 273 5.0 21.0 0.00 0.00 0.00 24 1002.8
20260507210101 62 257 5.0 11.0 0.00 0.00 0.00 23 1002.9
20260507204543 61 235 4.0 22.0 0.00 0.00 0.00 25 1003.2
20260507203109 61 242 3.0 17.0 0.00 0.00 0.00 25 1003.3
20260507201540 62 278 6.0 14.0 0.00 0.00 0.00 25 1003.5
20260507200038 60 280 7.0 18.0 0.00 0.00 0.00 24 1003.8
20260507194537 60 247 5.0 12.0 0.00 0.00 0.00 25 1003.7
20260507193035 59 216 1.0 13.0 0.00 0.00 0.00 30 1003.8
20260507191536 59 272 4.0 12.0 0.00 0.00 0.00 31 1004.0
20260507190031 59 275 10.0 21.0 0.00 0.00 0.00 30 1004.1
20260507184527 58 280 7.0 14.0 0.00 0.00 0.00 32 1004.2
20260507183027 59 263 10.0 17.0 0.00 0.00 0.00 31 1004.2
20260507181525 59 239 5.0 15.0 0.00 0.00 0.00 30 1004.4
20260507180025 57 40 3.0 11.0 0.00 0.00 0.00 33 1004.6
20260507174528 57 291 5.0 13.0 0.00 0.00 0.00 34 1004.9
20260507173044 56 288 6.0 10.0 0.00 0.00 0.00 33 1005.0
20260507171522 57 104 0.0 7.0 0.00 0.00 0.00 34 1005.2
20260507170114 56 288 3.0 16.0 0.00 0.00 0.00 35 1005.5
20260507164511 56 169 3.0 8.0 0.00 0.00 0.00 35 1005.7
20260507163009 54 137 2.0 8.0 0.00 0.00 0.00 36 1005.8
20260507161505 55 276 4.0 6.0 0.00 0.00 0.00 36 1006.0
20260507160004 53 203 3.0 8.0 0.00 0.00 0.00 42 1006.0
20260507154601 53 236 4.0 7.0 0.00 0.00 0.00 46 1006.1
20260507153059 52 241 3.0 7.0 0.00 0.00 0.00 47 1006.2
20260507151653 50 242 2.0 7.0 0.00 0.00 0.00 52 1006.2
20260507150048 49 146 3.0 9.0 0.00 0.00 0.00 54 1006.2
20260507144544 47 197 3.0 9.0 0.00 0.00 0.00 56 1006.3
20260507143054 45 206 2.0 6.0 0.00 0.00 0.00 59 1006.3
20260507141548 44 239 2.0 7.0 0.00 0.00 0.00 61 1006.2
20260507140034 43 153 3.0 6.0 0.00 0.00 0.00 61 1006.2
20260507134533 42 219 1.0 6.0 0.00 0.00 0.00 63 1006.0
20260507133035 40 239 0.0 2.0 0.00 0.00 0.00 68 1006.1
20260507131521 38 265 0.0 2.0 0.00 0.00 0.00 69 1006.1
20260507130018 36 287 0.0 1.0 0.00 0.00 0.00 73 1006.0
20260507124518 35 287 0.0 1.0 0.00 0.00 0.00 78 1005.9
20260507123019 32 286 0.0 1.0 0.00 0.00 0.00 82 1005.9
20260507121517 29 286 0.0 0.0 0.00 0.00 0.00 84 1005.9
20260507120015 27 286 0.0 0.0 0.00 0.00 0.00 83 1005.6
20260507114514 25 286 0.0 0.0 0.00 0.00 0.00 84 1005.6
20260507113014 24 286 0.0 0.0 0.00 0.00 0.00 85 1005.6
20260507111512 24 286 0.0 1.0 0.00 0.00 0.00 84 1005.6
20260507110011 25 286 0.0 1.0 0.00 0.00 0.00 85 1005.5
20260507104510 24 286 0.0 1.0 0.00 0.00 0.00 84 1005.7
20260507103008 25 88 0.0 1.0 0.00 0.00 0.00 83 1005.8
20260507101507 25 88 0.0 1.0 0.00 0.00 0.00 83 1005.9
20260507100004 25 88 0.0 1.0 0.00 0.00 0.00 82 1006.0
20260507094500 26 88 0.0 1.0 0.00 0.00 0.00 82 1005.9
20260507093058 27 88 0.0 1.0 0.00 0.00 0.00 79 1005.9
20260507091556 27 88 0.0 1.0 0.00 0.00 0.00 80 1006.0
20260507084550 29 88 0.0 1.0 0.00 0.00 0.00 74 1006.2
20260507083049 30 88 0.0 1.0 0.00 0.00 0.00 76 1006.1
20260507081544 32 88 0.0 0.0 0.00 0.00 0.00 72 1006.2
20260507080044 32 88 0.0 0.0 0.00 0.00 0.00 71 1006.2
20260507074546 34 89 0.0 1.0 0.00 0.00 0.00 70 1006.2
20260507073040 35 46 0.0 1.0 0.00 0.00 0.00 70 1006.2
20260507071536 35 74 1.0 3.0 0.00 0.00 0.00 71 1006.3
20260507070043 35 147 0.0 3.0 0.00 0.00 0.00 69 1006.2
20260507064535 35 159 3.0 5.0 0.00 0.00 0.00 68 1006.1
20260507063031 36 168 2.0 6.0 0.00 0.00 0.00 67 1006.2
20260507061528 36 160 3.0 6.0 0.00 0.00 0.00 67 1006.3
20260507060025 36 148 3.0 7.0 0.00 0.00 0.00 67 1006.3
20260507054523 36 154 4.0 8.0 0.00 0.00 0.00 66 1006.4
20260507053021 37 151 3.0 6.0 0.00 0.00 0.00 66 1006.5
20260507051518 37 159 3.0 7.0 0.00 0.00 0.00 66 1006.6